Location: Newark
(45.5000°N, 11.4167°E)
Time: 19:46:54
(UTC+00:00)

Transit 2A Rocket - Pass Details

Date: 01 September 2019
Orbit: 593 x 910 km, 66.7° (Epoch: 15 October)

Event Time Altitude Azimuth Distance (km) Brightness Sun altitude
Rises 01:21:38 0° 322° (NW) 2,972 8.2 -29.0°
Enters shadow 01:23:44 - 318° (NW) 2,138 7.4 -28.8°
Reaches altitude 10° 01:24:03 10° 317° (NW) 2,019 - -28.7°
Maximum altitude 01:28:21 45° 244° (WSW) 827 - -28.3°
Drops below altitude 10° 01:32:27 10° 171° (S) 1,924 - -27.8°
Sets 01:34:42 0° 165° (SSE) 2,816 - -27.6°
